Location: 相模原市立博物館
(35.5593°N, 139.3931°E)
Time: 21:46:48
(UTC+09:00)

Envisat - Visible Passes

Search period start: 23 October 2021 00:00
Search period end: 02 November 2021 00:00
Orbit: 764 x 766 km, 98.2° (Epoch: 22 October)

Date Brightness Start Highest point End Pass type
(mag) Time Alt. Az. Time Alt. Az. Time Alt. Az.
23 Oct 5.1 03:59:39 10° NE 04:03:59 28° E 04:08:17 10° SSE visible
24 Oct 6.2 03:25:14 10° ENE 03:26:49 11° E 03:28:25 10° ESE visible
24 Oct 2.9 05:01:12 10° N 05:06:15 68° WNW 05:11:16 10° SSW visible
25 Oct 3.9 04:24:27 10° NNE 04:29:24 51° E 04:34:20 10° S visible
25 Oct 6.2 17:16:56 10° SW 17:20:00 16° W 17:23:06 10° NW visible
26 Oct 5.5 03:48:31 10° NE 03:52:23 22° E 03:56:13 10° SE visible
26 Oct 3.5 05:26:48 10° N 05:31:27 37° WNW 05:36:04 10° SW visible
27 Oct 2.9 04:49:38 10° NNE 04:54:45 87° WNW 04:59:49 10° SSW visible
28 Oct 4.4 04:13:05 10° NNE 04:17:50 39° E 04:22:34 10° SSE visible
29 Oct 5.8 03:37:35 10° NE 03:40:46 17° E 03:43:56 10° SE visible
29 Oct 3.2 05:15:07 10° N 05:19:59 48° WNW 05:24:50 10° SW visible
30 Oct 3.2 04:38:08 10° NNE 04:43:13 73° ESE 04:48:16 10° S visible
30 Oct 6.6 17:32:38 10° WSW 17:33:57 11° W 17:35:17 10° WNW visible
31 Oct 4.9 04:01:49 10° NE 04:06:16 30° E 04:10:41 10° SSE visible
01 Nov 6.1 03:27:01 10° ENE 03:29:07 12° E 03:31:14 10° ESE visible
01 Nov 3.0 05:03:29 10° N 05:08:30 62° WNW 05:13:29 10° SSW visible
